Location: Bagnolo San Vito
(45.0833°N, 10.8833°E)
Time: 08:53:54
(UTC+00:00)

APEX - Pass Details

Date: 03 March 2021
Orbit: 332 x 1080 km, 69.9° (Epoch: 18 April)

Event Time Altitude Azimuth Distance (km) Brightness Sun altitude
Rises 17:39:07 0° 329° (NNW) 2,214 6.8 -6.5°
Reaches altitude 10° 17:41:10 10° 326° (NNW) 1,313 5.7 -6.9°
Maximum altitude 17:43:56 61° 246° (WSW) 387 2.9 -7.4°
Drops below altitude 10° 17:46:36 10° 164° (SSE) 1,267 5.0 -7.8°
Sets 17:48:33 0° 161° (SSE) 2,123 6.1 -8.2°
